Location: Arroyo Grande
(40.2671°N, 4.2512°W)
Time: 23:50:33
(UTC+00:00)

Cosmos 2278 Rocket - Pass Details

Date: 29 September 2023
Orbit: 842 x 844 km, 71.0° (Epoch: 03 December)

Event Time Altitude Azimuth Distance (km) Brightness Sun altitude
Rises 19:42:45 0° 339° (NNW) 3,410 5.9 -19.7°
Reaches altitude 10° 19:45:14 10° 343° (NNW) 2,471 5.0 -20.2°
Maximum altitude 19:50:52 63° 64° (ENE) 936 2.2 -21.2°
Enters shadow 19:52:35 43° 126° (SE) 1,168 2.5 -21.5°
